Other Surface Observations
Issued by NWS Charleston, SC

Home | Current Version | Previous Version | Text Only | Print | Product List | Glossary On
Versions: 1 2 3 4 5 6 7 8 9 10 11 12 13 14 15 16 17 18 19 20 21 22 23 24 25 26 27 28 29 30 31 32 33 34 35 36 37 38 39 40 41 42 43 44 45 46 47 48 49 50
000
SXUS52 KCHS 220925
OSOCHS

MARINE OBSERVATIONS
NATIONAL WEATHER SERVICE CHARLESTON SC
400 AM EST MON DEC 22 2014

...DOWNTOWN CHARLESTON AND HARBOR...

CITY           SKY/WX    TMP DP  RH WIND       PRES   REMARKS
WATERFRONT PRK NOT AVBL
FORT JOHNSON   NOT AVBL

...LAKE MOULTRIE...

CITY           SKY/WX    TMP DP  RH WIND       PRES   REMARKS
PINOPOLIS        N/A     48  45  87 N9        29.97F

...LAKE AND SUPPLEMENTAL COASTAL OBSERVATIONS...

STATION/POSITION TIME  TEMP    WIND        PRES    WAVE   SWELL
                       AIR SEA DIR/SP/G            HT/PER HT/PER/DIR
                 (UTC) (F)     (DEG/KT/KT) (MB)    (FT/S) (FT/S/D)
FORT PULASKI     0900   50 55   40/  8/ 10 1016.9F
SAPELO ISLAND    0900   52      30/  6     1016.0F
UPR LAKE MARION  NOT AVBL
WINYAH BAY       0900   45     350/  5     1017.0S
LAKE MURRAY      0800   45      30/  3/  5 1019.0S
ACE BASIN NERRS  0900   47     350/  2     1017.0S


...C-MAN AND BUOY OBSERVATIONS...

STATION/POSITION TIME  TEMP    WIND        PRES    WAVE   SWELL
                       AIR SEA DIR/SP/G            HT/PER HT/PER/DIR
                 (UTC) (F)     (DEG/KT/KT) (MB)    (FT/S) (FT/S/D)
BUOY 41004       0900   72 73  160/ 14/ 16 1014.7F   7/ 7   5/ 7
BUOY 41008       0900   58 59   40/ 12/ 14 1016.3R   5/ 8   3/ 80/ 8
FOLLY BEACH CMAN 0900   49     350/  8/ 11 1017.5F
CAPERS NS BUOY   0800   51      40/ 16/ 19   N/A
FRIPP NS BUOY    NOT AVBL
5E ST. MARYS GA  0900      61                N/A     4/ 8


STATION/POSITION TIME  TEMP    WIND        PRES    WAVE   SWELL
                       AIR SEA DIR/SP/G            HT/PER HT/PER/DIR
                 (UTC) (F)     (DEG/KT/KT) (MB)    (FT/S) (FT/S/D)
FRYING PAN BUOY  0900   63 69   60/ 16/ 19 1015.9F   8/ 7   3/100/ 8
BUOY 41025       0900   62                 1018.6F
CAPE LOOKOUT NC  0900   53      40/ 21/ 24 1017.0F
BUOY 41002       0849   72 72  170/  6/ 10 1017.2F   6/ 7   5/ 70/ 7
BUOY 41010       0900   75 77  200/ 14/ 16 1017.1F   4/ 8   3/ 40/ 8
ST AUGUSTINE FL  0900   63     200/  7/  9 1017.4R

$$



USA.gov is the U.S. government's official web portal to all federal, state and local government web resources and services.